sat.trackr.live / text

‹ back to catalog

STARLINK-6119

NORAD 56125 · 2023-046AK

PAYLOAD ACTIVE UNKNOWN

§ Identity

Operator
Country
US
Launch date
2023-03-29
Launch site
AFETR
Launch vehicle
Mass (kg)
RCS (m²)

Purposes: comms

External: N2YO · Heavens-Above · Gunter

§ Orbital elements

Epoch: 2026-09-20T22:11:58.468128Z

Period
94.27 min
Inclination
43.0028°
Eccentricity
0.0001128
Mean motion
15.27575982 rev/d
Perigee alt
482.3 km
Apogee alt
483.8 km
Semi-major
6,861.2 km
B*
-9.9712e-6
RAAN
124.8518°
Arg perigee
266.5265°
Mean anomaly
93.5458°
Rev number
19,205

§ Raw data

STARLINK-61191 56125U 23046AK  26263.92498227 -.00000536  00000+0 -99712-5 0  99942 56125  43.0028 124.8518 0001128 266.5265  93.5458 15.27575982192053

JSON: /api/v1/satellites/56125 · /tle

For live sub-satellite position, see the globe view (requires WebGL).

§ Visibility from observer

Set your observer location to see the next 7 days of passes ≥ 10°. The values pass through the URL so the page stays shareable.

No JS? Fill the form by hand. The geolocation button needs JavaScript.